User: anonymous   Login
Location: Bishop�s Knoyle
(51.0728°N, 2.1714°W)
Time: 19:30:11
(UTC+00:00)
Language:

MOZHAYETS 4 - Orbit

View from above orbital plane
View from above orbital plane
View from above satellite
View from above satellite

Ground track
Ground track

The orbit data is extracted from the following two-line orbital elements,

1 27939U 03042A   21341.48859786  .00000224  00000-0  48626-4 0  9993
2 27939  98.1654 117.6412 0014199  94.2232 266.0587 14.67072687972890
Epoch (UTC): 07 December 2021 11:43:34
Eccentricity: 0.0014199
inclination: 98.1654°
perigee height: 660 km
apogee height: 680 km
right ascension of ascending node: 117.6412°
argument of perigee: 94.2232°
revolutions per day: 14.67072687
mean anomaly at epoch: 266.0587°
orbit number at epoch: 97289

The dashed part of the orbit path shows where the satellite is in the earth's shadow,  

DLR